Weather reports worldwide

Advertisment
Ojmjakon, Russia (24688): temperature & dewpoint: 13.01.2019 19:00:00 - 19.01.2019 19:00:00 (MAGT)Ojmjakon, Russia (24688): wind speed: 13.01.2019 19:00:00 - 19.01.2019 19:00:00 (MAGT)Ojmjakon, Russia (24688): wind direction: 13.01.2019 19:00:00 - 19.01.2019 19:00:00 (MAGT)Ojmjakon, Russia (24688): reduced air pressure: 13.01.2019 19:00:00 - 19.01.2019 19:00:00 (MAGT)Ojmjakon, Russia (24688): visibility: 13.01.2019 19:00:00 - 19.01.2019 19:00:00 (MAGT)
Date & Time tt [°C] td [°C] ff [km/h] ff [kn] dd ppp [hPa] vv [km]
19.01.2019 19:00:00 - - - - - - -
19.01.2019 18:00:00 - - - - - - -
19.01.2019 17:00:00 - - - - - - -
19.01.2019 16:00:00 -51,9 -54,4 0 0 N 1042,4 20
19.01.2019 15:00:00 - - - - - - -
19.01.2019 14:00:00 - - - - - - -
19.01.2019 13:00:00 -52,3 -54,4 0 0 N 1042,2 4,0
19.01.2019 12:00:00 - - - - - - -
19.01.2019 11:00:00 - - - - - - -
19.01.2019 10:00:00 -53,8 -56,3 0 0 N 1043,4 10
19.01.2019 09:00:00 - - - - - - -
19.01.2019 08:00:00 - - - - - - -
19.01.2019 07:00:00 -54,5 -56,3 0 0 N 1043,1 10
19.01.2019 06:00:00 - - - - - - -
19.01.2019 05:00:00 - - - - - - -
19.01.2019 04:00:00 -54,1 -56,3 0 0 N 1042,6 4,0
19.01.2019 03:00:00 - - - - - - -
19.01.2019 02:00:00 - - - - - - -
19.01.2019 01:00:00 -54,1 -56,3 0 0 N 1042,0 50
19.01.2019 00:00:00 - - - - - - -
18.01.2019 23:00:00 - - - - - - -
18.01.2019 22:00:00 -54,4 -56,3 0 0 N 1042,4 50
18.01.2019 21:00:00 - - - - - - -
18.01.2019 20:00:00 - - - - - - -
18.01.2019 19:00:00 -53,9 -56,3 0 0 N 1041,8 20
18.01.2019 18:00:00 - - - - - - -
18.01.2019 17:00:00 - - - - - - -
18.01.2019 16:00:00 -53,0 -56,3 0 0 N 1040,7 20
18.01.2019 15:00:00 - - - - - - -
18.01.2019 14:00:00 - - - - - - -
18.01.2019 13:00:00 -52,7 -54,4 0 0 N 1041,0 10
18.01.2019 12:00:00 - - - - - - -
18.01.2019 11:00:00 - - - - - - -
18.01.2019 10:00:00 -54,0 -56,3 0 0 N 1042,6 10
18.01.2019 09:00:00 - - - - - - -
18.01.2019 08:00:00 - - - - - - -
18.01.2019 07:00:00 -54,1 -55,8 0 0 N 1042,8 50
18.01.2019 06:00:00 - - - - - - -
18.01.2019 05:00:00 - - - - - - -
18.01.2019 04:00:00 -55,1 -58,1 0 0 N 1030,5 50
18.01.2019 03:00:00 - - - - - - -
18.01.2019 02:00:00 - - - - - - -
18.01.2019 01:00:00 -55,1 -58,5 0 0 N 1044,9 50
18.01.2019 00:00:00 - - - - - - -
17.01.2019 23:00:00 - - - - - - -
17.01.2019 22:00:00 -54,3 -56,3 0 0 N 1046,1 50
17.01.2019 21:00:00 - - - - - - -
17.01.2019 20:00:00 - - - - - - -
17.01.2019 19:00:00 -53,8 -56,3 0 0 N 1046,8 50
17.01.2019 18:00:00 - - - - - - -
17.01.2019 17:00:00 - - - - - - -
17.01.2019 16:00:00 -52,2 -54,0 0 0 N 1046,4 50
17.01.2019 15:00:00 - - - - - - -
17.01.2019 14:00:00 - - - - - - -
17.01.2019 13:00:00 -51,6 -54,0 0 0 N 1047,4 50
17.01.2019 12:00:00 - - - - - - -
17.01.2019 11:00:00 - - - - - - -
17.01.2019 10:00:00 -54,3 -56,3 0 0 N 1050,9 10
17.01.2019 09:00:00 - - - - - - -
17.01.2019 08:00:00 - - - - - - -
17.01.2019 07:00:00 -54,1 -56,3 0 0 N 1051,3 20
17.01.2019 06:00:00 - - - - - - -
17.01.2019 05:00:00 - - - - - - -
17.01.2019 04:00:00 -52,7 -54,0 4 2 W 1050,9 20
17.01.2019 03:00:00 - - - - - - -
17.01.2019 02:00:00 - - - - - - -
17.01.2019 01:00:00 -52,3 -54,0 0 0 N 1051,7 50
17.01.2019 00:00:00 - - - - - - -
16.01.2019 23:00:00 - - - - - - -
16.01.2019 22:00:00 -52,5 -54,0 0 0 N 1052,4 50
16.01.2019 21:00:00 - - - - - - -
16.01.2019 20:00:00 - - - - - - -
16.01.2019 19:00:00 -51,8 -54,0 0 0 N 1052,0 50
16.01.2019 18:00:00 - - - - - - -
16.01.2019 17:00:00 - - - - - - -
16.01.2019 16:00:00 -50,6 -52,4 0 0 N 1050,5 50
16.01.2019 15:00:00 - - - - - - -
16.01.2019 14:00:00 - - - - - - -
16.01.2019 13:00:00 -51,0 -52,4 4 2 NNE 1049,8 50
16.01.2019 12:00:00 - - - - - - -
16.01.2019 11:00:00 - - - - - - -
16.01.2019 10:00:00 -52,2 -54,0 0 0 N 1049,7 20
16.01.2019 09:00:00 - - - - - - -
16.01.2019 08:00:00 - - - - - - -
16.01.2019 07:00:00 -51,2 -52,4 0 0 N 1047,5 10
16.01.2019 06:00:00 - - - - - - -
16.01.2019 05:00:00 - - - - - - -
16.01.2019 04:00:00 -50,8 -52,4 0 0 N 1046,9 10
16.01.2019 03:00:00 - - - - - - -
16.01.2019 02:00:00 - - - - - - -
16.01.2019 01:00:00 -52,2 -54,4 0 0 N 1046,6 10
16.01.2019 00:00:00 - - - - - - -
15.01.2019 23:00:00 - - - - - - -
15.01.2019 22:00:00 -53,6 -56,3 0 0 N 1047,2 10
15.01.2019 21:00:00 - - - - - - -
15.01.2019 20:00:00 - - - - - - -
15.01.2019 19:00:00 -53,2 -55,8 0 0 N 1045,6 10
15.01.2019 18:00:00 - - - - - - -
15.01.2019 17:00:00 - - - - - - -
15.01.2019 16:00:00 -52,5 -54,0 0 0 N 1044,8 10
15.01.2019 15:00:00 - - - - - - -
15.01.2019 14:00:00 - - - - - - -
15.01.2019 13:00:00 -52,6 -54,0 0 0 N 1045,1 4,0
15.01.2019 12:00:00 - - - - - - -
15.01.2019 11:00:00 - - - - - - -
15.01.2019 10:00:00 -54,4 -56,3 0 0 N 1046,6 20
15.01.2019 09:00:00 - - - - - - -
15.01.2019 08:00:00 - - - - - - -
15.01.2019 07:00:00 -54,9 -56,3 0 0 N 1047,4 10
15.01.2019 06:00:00 - - - - - - -
15.01.2019 05:00:00 - - - - - - -
15.01.2019 04:00:00 -55,5 -58,5 0 0 N 1047,8 50
15.01.2019 03:00:00 - - - - - - -
15.01.2019 02:00:00 - - - - - - -
15.01.2019 01:00:00 -55,4 -58,5 0 0 N 1048,5 50
15.01.2019 00:00:00 - - - - - - -
14.01.2019 23:00:00 - - - - - - -
14.01.2019 22:00:00 -54,8 -56,3 0 0 N 1048,9 20
14.01.2019 21:00:00 - - - - - - -
14.01.2019 20:00:00 - - - - - - -
14.01.2019 19:00:00 -54,7 -56,3 0 0 N 1048,7 20
14.01.2019 18:00:00 - - - - - - -
14.01.2019 17:00:00 - - - - - - -
14.01.2019 16:00:00 -52,6 -54,4 0 0 N 1047,6 50
14.01.2019 15:00:00 - - - - - - -
14.01.2019 14:00:00 - - - - - - -
14.01.2019 13:00:00 -51,9 -54,4 0 0 N 1038,2 4,0
14.01.2019 12:00:00 - - - - - - -
14.01.2019 11:00:00 - - - - - - -
14.01.2019 10:00:00 -54,6 -56,3 0 0 N 1049,5 10
14.01.2019 09:00:00 - - - - - - -
14.01.2019 08:00:00 - - - - - - -
14.01.2019 07:00:00 -54,2 -56,3 0 0 N 1049,2 50
14.01.2019 06:00:00 - - - - - - -
14.01.2019 05:00:00 - - - - - - -
14.01.2019 04:00:00 -53,8 -56,3 0 0 N 1049,2 50
14.01.2019 03:00:00 - - - - - - -
14.01.2019 02:00:00 - - - - - - -
14.01.2019 01:00:00 -52,3 -54,0 0 0 N 1048,8 50
14.01.2019 00:00:00 - - - - - - -
13.01.2019 23:00:00 - - - - - - -
13.01.2019 22:00:00 -52,1 -54,0 0 0 N 1048,8 20
13.01.2019 21:00:00 - - - - - - -
13.01.2019 20:00:00 - - - - - - -
13.01.2019 19:00:00 -51,1 -53,0 0 0 N 1048,6 50

tt = temperature
td = dewpoint
ff = wind speed
dd = wind direction
ppp = reduced air pressure
vv = visibility

Next stations